Zurück zum Katalog

GSAT 7

AktivMilitärGEO
NORAD 39234·PAYLOAD·🇮🇳 India

Gestartet Aug 29, 2013 von Guiana Space Centre

Loading…

TLE

AktuellSource: Space-Track

Epoche: Sep 14, 2026, 14:09 UTC

1 39234U 13044B   26257.58983441 -.00000085  00000-0  00000-0 0  9991
2 39234   0.3051  86.9605 0005060 165.1737  27.7832  1.00272105 46150

Verfolge GSAT 7 in Echtzeit mit AllMySat

Download on the App Store